Powrót do katalogu

YZ-1 R/B

AktywnyMEO
NORAD 43605·ROCKET BODY·🇨🇳 China

Wystrzelony Aug 24, 2018 z Xichang Satellite Launch Center

Loading…

Następne Przeloty (najbliższe 24 godziny)

TLE

Starzejące sięSource: Space-Track

Epoka: Aug 27, 2026, 13:48 UTC

1 43605U 18067D   26239.57565541  .00000015  00000-0  00000+0 0  9995
2 43605  53.7973 186.1479 0055209  50.0032 310.4410  1.78798375 52286

Śledź YZ-1 R/B w czasie rzeczywistym z AllMySat

Download on the App Store